Weather History for KACV - August, 2013

Change the Weather History Date:

Saturday, August 3, 2013

  Actual Average Record
Temperature  
Mean Temperature 54 °F -  
Max Temperature 59 °F 62 °F 66 °F (1997)
Min Temperature 51 °F 50 °F 44 °F (2011)
Degree Days  
Heating Degree Days 11    
Growing Degree Days 4 (Base 50)    
Moisture  
Dew Point 52 °F    
Average Humidity 94    
Maximum Humidity 100    
Minimum Humidity 82    
Precipitation  
Precipitation 0.01 in - - ()
Sea Level Pressure  
Sea Level Pressure 30.00 in    
Wind  
Wind Speed 3 mph (West)    
Max Wind Speed 8 mph    
Max Gust Speed -    
Visibility 5 miles    
Events Fog    
Averages and records for this station are not official NWS values.
T = Trace of Precipitation, MM = Missing Value Source: NWS Daily Summary

Daily Weather History Graph

Daily Weather History Graph

Search for Another Location

Airport or City:

Trip Planner

Search our weather history database for the weather conditions in past years. The results will help you decide how hot, cold, wet, or windy it might be!

Date:

Astronomy

Aug. 03, 2013 Rise Set
Actual Time 6:14 AM PDT 8:29 PM PDT
Civil Twilight 5:44 AM PDT 9:00 PM PDT
Nautical Twilight 5:06 AM PDT 9:37 PM PDT
Astronomical Twilight 4:24 AM PDT 10:19 PM PDT
Moon 3:28 AM PDT (8/3) 6:16 PM PDT (8/3)
Length of Visible Light 15h 16m
Length of Day
14h 15m
Waning Crescent, 9% of the Moon is Illuminated
Aug 3
Waning Crescent
Aug 6
New
Aug 14
First Quarter
Aug 20
Full
Aug 28
Last Quarter

Hourly Weather History & Observations

Time (PDT) Temp. Dew Point Humidity Pressure Visibility Wind Dir Wind Speed Gust Speed Precip Events Conditions
12:53 AM 54.0 °F 52.0 °F 93% 30.02 in 10.0 mi SSE 3.5 mph - N/A   Overcast
1:49 AM 53.6 °F 51.8 °F 94% 30.00 in 10.0 mi South 4.6 mph - N/A   Overcast
1:53 AM 53.1 °F 52.0 °F 96% 30.02 in 10.0 mi SSE 3.5 mph - N/A   Overcast
2:53 AM 53.1 °F 52.0 °F 96% 30.01 in 10.0 mi Calm Calm - N/A   Overcast
3:53 AM 53.1 °F 52.0 °F 96% 30.01 in 5.0 mi Calm Calm - N/A   Overcast
4:23 AM 53.6 °F 51.8 °F 94% 30.00 in 2.0 mi NNW 3.5 mph - N/A   Overcast
4:33 AM 51.8 °F 51.8 °F 100% 30.00 in 1.2 mi Calm Calm - N/A   Overcast
4:45 AM 51.8 °F 51.8 °F 100% 30.00 in 0.5 mi Calm Calm - N/A Fog Fog
4:53 AM 52.0 °F 52.0 °F 100% 30.02 in 0.2 mi NW 3.5 mph - N/A Fog Fog
5:08 AM 51.8 °F 51.8 °F 100% 30.00 in 0.5 mi Calm Calm - N/A Fog Fog
5:23 AM 51.8 °F 51.8 °F 100% 30.00 in 1.8 mi Calm Calm - N/A   Overcast
5:34 AM 51.8 °F 51.8 °F 100% 30.00 in 2.5 mi Calm Calm - N/A   Overcast
5:44 AM 51.8 °F 51.8 °F 100% 30.00 in 1.0 mi Calm Calm - N/A   Overcast
5:53 AM 52.0 °F 52.0 °F 100% 30.02 in 2.0 mi Calm Calm - N/A   Overcast
6:01 AM 51.8 °F 51.8 °F 100% 30.01 in 0.8 mi Calm Calm - N/A   Overcast
6:09 AM 51.8 °F 51.8 °F 100% 30.01 in 2.0 mi Calm Calm - N/A   Overcast
6:40 AM 51.8 °F 51.8 °F 100% 30.01 in 0.8 mi Calm Calm - N/A   Overcast
6:53 AM 52.0 °F 52.0 °F 100% 30.03 in 0.8 mi Calm Calm - 0.01 in   Overcast
7:07 AM 51.8 °F 51.8 °F 100% 30.01 in 2.0 mi Calm Calm - N/A   Overcast
7:15 AM 51.8 °F 51.8 °F 100% 30.01 in 5.0 mi Calm Calm - N/A   Overcast
7:53 AM 52.0 °F 51.1 °F 97% 30.03 in 6.0 mi WSW 3.5 mph - N/A   Overcast
8:53 AM 52.0 °F 52.0 °F 100% 30.03 in 6.0 mi Calm Calm - N/A   Overcast
9:53 AM 52.0 °F 52.0 °F 100% 30.03 in 7.0 mi WNW 4.6 mph - N/A   Overcast
10:53 AM 53.1 °F 52.0 °F 96% 30.03 in 10.0 mi West 4.6 mph - N/A   Overcast
11:22 AM 53.6 °F 51.8 °F 94% 30.01 in 1.8 mi WSW 4.6 mph - N/A   Overcast
11:40 AM 53.6 °F 51.8 °F 94% 30.01 in 3.0 mi Variable 3.5 mph - N/A   Overcast
11:53 AM 53.1 °F 52.0 °F 96% 30.02 in 4.0 mi WSW 4.6 mph - N/A   Overcast
12:04 PM 53.6 °F 51.8 °F 94% 30.01 in 2.5 mi Variable 3.5 mph - N/A   Overcast
12:12 PM 53.6 °F 51.8 °F 94% 30.01 in 8.0 mi WSW 4.6 mph - N/A   Overcast
12:53 PM 54.0 °F 52.0 °F 93% 30.02 in 10.0 mi WSW 5.8 mph - N/A   Overcast
1:53 PM 57.0 °F 52.0 °F 83% 30.01 in 10.0 mi WSW 5.8 mph - N/A   Mostly Cloudy
2:07 PM 57.2 °F 51.8 °F 82% 29.99 in 10.0 mi West 5.8 mph - N/A   Partly Cloudy
2:53 PM 57.0 °F 52.0 °F 83% 30.01 in 10.0 mi WNW 6.9 mph - N/A   Clear
3:08 PM 57.2 °F 51.8 °F 82% 29.99 in 10.0 mi Variable 6.9 mph - N/A   Scattered Clouds
3:18 PM 57.2 °F 51.8 °F 82% 29.99 in 10.0 mi NW 8.1 mph - N/A   Mostly Cloudy
3:53 PM 55.9 °F 52.0 °F 87% 30.01 in 6.0 mi NW 8.1 mph - N/A   Overcast
4:04 PM 55.4 °F 51.8 °F 88% 29.99 in 5.0 mi NW 8.1 mph - N/A   Overcast
4:53 PM 55.9 °F 52.0 °F 87% 30.01 in 4.0 mi NW 6.9 mph - N/A   Overcast
5:01 PM 55.4 °F 51.8 °F 88% 29.99 in 1.8 mi NW 6.9 mph - N/A   Overcast
5:10 PM 55.4 °F 51.8 °F 88% 29.99 in 2.5 mi NW 6.9 mph - N/A   Overcast
5:22 PM 53.6 °F 51.8 °F 94% 29.99 in 1.2 mi NNW 4.6 mph - N/A   Overcast
5:33 PM 53.6 °F 51.8 °F 94% 29.98 in 3.0 mi WNW 3.5 mph - N/A   Overcast
5:53 PM 54.0 °F 52.0 °F 93% 30.00 in 10.0 mi Calm Calm - N/A   Overcast
6:21 PM 53.6 °F 51.8 °F 94% 29.98 in 2.5 mi WNW 4.6 mph - N/A   Overcast
6:32 PM 53.6 °F 51.8 °F 94% 29.98 in 0.8 mi NW 4.6 mph - N/A   Overcast
6:46 PM 53.6 °F 51.8 °F 94% 29.98 in 1.5 mi North - - N/A   Overcast
6:53 PM 53.1 °F 51.1 °F 93% 30.00 in 1.2 mi North - - N/A   Overcast
7:00 PM 53.6 °F 51.8 °F 94% 29.98 in 3.0 mi NW 3.5 mph - N/A   Overcast
7:10 PM 53.6 °F 51.8 °F 94% 29.98 in 2.5 mi Calm Calm - N/A   Overcast
7:17 PM 53.6 °F 51.8 °F 94% 29.98 in 4.0 mi Calm Calm - N/A   Overcast
7:53 PM 53.1 °F 52.0 °F 96% 30.00 in 7.0 mi South 5.8 mph - N/A   Overcast
8:53 PM 53.1 °F 52.0 °F 96% 30.00 in 7.0 mi South 5.8 mph - N/A   Overcast
9:53 PM 53.1 °F 52.0 °F 96% 30.01 in 5.0 mi SSW 5.8 mph - N/A   Overcast
10:53 PM 53.1 °F 52.0 °F 96% 30.01 in 6.0 mi SSW 3.5 mph - N/A   Overcast
11:53 PM 53.1 °F 52.0 °F 96% 30.01 in 8.0 mi South 6.9 mph - N/A   Overcast